CZ-3A DEB, 35551

Orbit data source: Space-Track

CZ-3A DEB, 35551 is space debris in HEO originally from a launch on Fri, 02 Feb 2007 UTC launched from the Xichang Space Center, China (XSC). Debris objects in space refer to the collection of defunct objects orbiting the Earth. Examples of debris include non-operational satellites, rocket bodies, and fragments generated from explosions, collisions, or faulty payload assembly.

Loading next visibility...
Identifier
35551, 2007-003K
Orbit
HEO
Country
Flag of CNCN / PRC
Related business
Manufacturer
Unknown
Mission
Spacecraft
Bus & Motor
Unknown
Mass
Unknown
Launch date (UTC)
2007-02-02 (19 years ago)
Launch vehicle
Unknown
Launch site
Xichang Space Center, China (XSC)
Object type
Payload
Rocket body
Debris
Shape & HBR
Unknown shape, 0.1 m
Radar Cross Section
Medium (>0.1 m² and <1 m²)

Expand to show TLE details & history
Last TLE update: 4 days ago

TLE from 4 days ago
0 CZ-3A DEB
1 35551U 07003K   26170.30513926 -.00000106  00000-0  54123-4 0  9991
2 35551  24.7487 232.2336 7203539 135.8298 311.7232  2.16469449 21107
Epoch: 2026-06-19T07:19Z
TLE epoch observation values (Epoch: 2026-06-19T07:19:24.032Z)
Latitude
-0.00001°
Longitude
-145.055°
Altitude
18,738.89 km
Speed
3.993 km/s
True Right ascension
15h 29m 19s
True Declination
0° 00' 00"
Sunlit
Object was in daylight at epoch
Visualization orbit readout
Latitude
Unknown
Longitude
Unknown
Altitude
Unknown
Speed
Unknown
Apparent Right ascension
Unknown
Apparent Declination
Unknown
Sunlit
N/A
Visualization observer readout
Local Sidereal Time
07:10:42
Azimuth
Unknown
Elevation
Unknown
Doppler factor
Unknown
Orbital elements
Apogee altitude
37,055.061 km
Perigee altitude
681.994 km
Semi-major axis
25,246.665 km
Eccentricity
0.72035
Inclination
24.7487°
RAAN
232.2336°
Arg. of periapsis
135.8298°
True anomaly
224.23017°
Mean anomaly
311.7232°
Eccentric anomaly
270.45124°
Mean motion
0.54105 °/min
Orbital period
665.37 mins
BSTAR
0.000054123
Loading maneuver chart data...
Computing Atmospheric mass density...
Loading historical data...
Loading historical data...
Loading historical data...
Loading historical data...
Loading historical data...
Loading historical data...
Loading historical data...

Documentation

Showing up to 5 results
|